TimePST,TemperatureF,Dew PointF,Humidity,Sea Level PressureIn,VisibilityMPH,Wind Direction,Wind SpeedMPH,Gust SpeedMPH,PrecipitationIn,Events,Conditions,WindDirDegrees,DateUTC
12:56 AM,41.0,39.0,93,30.06,10.0,Calm,Calm,-,N/A,,Clear,0,2012-12-15 08:56:00
1:56 AM,42.1,39.0,89,30.07,10.0,SSE,4.6,-,N/A,,Clear,150,2012-12-15 09:56:00
2:56 AM,41.0,37.9,89,30.07,10.0,SSW,4.6,-,N/A,,Clear,200,2012-12-15 10:56:00
3:56 AM,39.0,37.0,93,30.06,10.0,Calm,Calm,-,N/A,,Clear,0,2012-12-15 11:56:00
4:56 AM,39.0,36.0,89,30.05,10.0,SSE,3.5,-,N/A,,Clear,150,2012-12-15 12:56:00
5:56 AM,39.9,37.0,89,30.06,10.0,SSE,5.8,-,N/A,,Clear,150,2012-12-15 13:56:00
6:56 AM,39.0,37.0,93,30.05,10.0,SE,6.9,-,N/A,,Clear,140,2012-12-15 14:56:00
7:56 AM,41.0,37.9,89,30.08,10.0,South,3.5,-,N/A,,Clear,170,2012-12-15 15:56:00
8:56 AM,44.1,39.0,82,30.11,10.0,Calm,Calm,-,N/A,,Overcast,0,2012-12-15 16:56:00
9:56 AM,46.0,39.0,76,30.12,10.0,ESE,8.1,-,N/A,,Overcast,120,2012-12-15 17:56:00
10:56 AM,48.0,39.9,74,30.10,10.0,Variable,3.5,-,N/A,,Partly Cloudy,0,2012-12-15 18:56:00
11:56 AM,48.9,39.9,71,30.07,10.0,SE,9.2,-,N/A,,Overcast,140,2012-12-15 19:56:00
12:56 PM,48.9,39.0,69,30.06,10.0,SE,5.8,-,0.00,Rain,Light Rain,140,2012-12-15 20:56:00
1:56 PM,48.0,43.0,83,30.05,7.0,SE,8.1,-,0.03,Rain,Light Rain,140,2012-12-15 21:56:00
2:56 PM,46.9,44.1,90,30.04,5.0,SE,5.8,-,0.06,Rain,Light Rain,140,2012-12-15 22:56:00
3:56 PM,46.9,44.1,90,30.05,9.0,ESE,8.1,-,0.03,Rain,Light Rain,120,2012-12-15 23:56:00
4:56 PM,46.0,44.1,93,30.04,10.0,SE,8.1,-,0.02,Rain,Light Rain,130,2012-12-16 00:56:00
5:56 PM,46.9,43.0,86,30.03,10.0,SE,8.1,-,0.01,,Overcast,130,2012-12-16 01:56:00
6:56 PM,46.9,43.0,86,30.04,10.0,SE,9.2,-,N/A,,Overcast,140,2012-12-16 02:56:00
7:56 PM,48.0,41.0,77,30.03,10.0,SE,11.5,-,N/A,,Overcast,140,2012-12-16 03:56:00
8:56 PM,48.0,39.9,74,30.02,10.0,SE,12.7,-,N/A,,Overcast,140,2012-12-16 04:56:00
9:56 PM,48.0,39.9,74,30.04,10.0,SE,11.5,-,N/A,,Overcast,140,2012-12-16 05:56:00
10:56 PM,48.9,39.9,71,30.06,10.0,SE,8.1,-,N/A,,Overcast,130,2012-12-16 06:56:00
11:56 PM,48.9,39.9,71,30.07,10.0,SE,6.9,-,N/A,,Overcast,140,2012-12-16 07:56:00